Temp
62 62 62 62 62 61 61 61 61 61 61 61 61 61 61 61 61 61 61 61 60 60 59 59 62 62 68 81 85 86 81 81 87 89 87 85 84 82 79 81 82 81 82 83 85 84 84
62 62 62 62 61 61 61 61 61 61 61 61 61 60 60 60 61 61 61 60 59 59 59 61 62 63 75 79 89 85 86 87 89 89 88 87 86 87 83 81 81 83 84 83 85 84 83
62 62 62 61 61 61 61 61 61 61 61 60 60 60 60 60 60 60 60 60 59 58 59 62 63 68 79 83 89 86 88 89 89 89 88 90 91 88 85 81 84 83 80 83 82 82 80
61 61 61 61 61 61 61 61 61 60 60 60 60 60 60 60 60 60 59 59 59 60 61 63 64 72 82 87 88 85 87 89 90 91 88 92 92 87 84 84 82 78 77 75 80 82 80
60 60 60 61 61 60 60 60 60 60 60 59 59 59 59 59 59 59 58 58 60 62 64 64 71 77 82 80 85 89 90 89 89 90 90 93 91 83 84 80 77 75 70 71 74 82 81
60 60 61 61 61 60 60 60 59 59 59 59 59 59 59 58 58 58 58 60 63 66 68 71 75 77 84 84 88 88 89 91 89 89 87 87 85 82 80 80 69 70 71 72 70 78 79
60 60 60 60 60 60 59 59 59 59 59 59 59 59 58 58 58 57 61 73 78 77 75 80 80 80 83 89 92 88 90 89 90 88 81 81 80 77 80 78 76 75 72 72 76 79 77
60 60 60 60 59 59 59 59 59 59 59 59 58 58 58 58 57 57 65 78 80 82 76 78 78 80 84 87 84 85 91 86 83 79 79 80 75 81 80 78 77 76 73 73 77 78 77
60 59 59 59 59 59 59 59 58 58 58 58 58 57 57 57 56 62 74 80 82 83 75 77 79 81 85 88 84 84 89 84 80 77 77 77 78 79 79 78 76 77 73 73 74 75 76
59 59 59 59 59 59 58 58 58 58 58 57 57 57 56 55 63 73 77 80 79 81 72 74 78 84 84 86 82 87 90 87 79 78 76 77 79 79 78 77 79 74 77 75 75 74 70
59 59 59 59 59 59 58 58 58 58 57 57 56 56 55 55 68 76 79 78 78 83 60 76 79 88 84 84 84 82 88 87 78 76 77 76 77 77 77 79 79 76 79 76 73 73 71
59 59 59 59 59 58 58 58 58 57 57 57 56 55 55 58 62 75 76 79 83 70 59 73 80 79 80 81 81 82 85 88 84 78 76 77 80 80 81 82 80 80 76 73 72 73 66
59 59 59 58 58 58 57 57 57 57 57 56 55 54 54 64 78 73 76 82 69 64 73 71 74 77 78 76 78 80 78 77 75 68 69 73 78 81 82 79 80 79 77 69 66 66 65
59 59 58 58 58 57 57 57 57 57 56 55 54 54 56 65 71 72 81 77 60 67 69 75 74 73 74 77 77 76 75 73 74 74 71 69 68 76 82 82 79 77 79 69 57 62 67
59 58 58 58 57 57 57 57 57 56 56 55 53 65 68 75 71 73 79 66 66 67 72 71 72 70 71 74 75 74 74 74 78 77 70 68 69 78 79 81 81 73 72 77 69 62 65
58 58 58 57 57 57 57 57 57 56 55 54 65 72 74 75 75 80 74 59 67 71 74 73 68 70 68 71 73 73 72 75 75 77 82 73 68 76 79 82 78 78 77 71 70 60 59
58 58 57 56 56 57 57 57 56 56 55 53 69 75 77 75 78 76 68 65 68 74 74 71 69 69 69 69 71 71 71 74 75 73 77 76 74 73 77 77 76 75 74 69 72 69 64
58 58 57 56 56 56 57 56 56 55 53 56 70 70 77 77 72 62 66 65 61 72 74 73 73 71 69 69 69 69 69 70 74 77 73 75 74 68 73 77 77 79 78 77 68 64 65
58 58 57 57 56 56 56 56 56 55 53 56 65 67 76 77 66 64 65 67 69 70 68 70 69 70 70 68 66 69 70 74 74 74 72 74 69 66 69 73 73 73 73 75 72 70 67
57 58 57 57 56 57 57 57 56 55 53 59 65 67 69 66 61 64 63 63 65 69 67 68 68 70 69 67 67 65 68 72 73 72 66 72 70 69 66 70 71 68 72 71 73 67 70
57 57 57 57 57 57 57 57 56 54 53 62 58 54 55 60 61 60 61 61 62 61 66 68 66 65 63 63 64 64 67 70 72 69 70 73 66 65 69 70 68 69 71 73 68 72 67
57 57 57 57 57 57 57 57 56 53 53 57 58 58 56 54 53 59 54 55 57 59 60 62 62 64 65 62 62 62 64 66 66 71 70 69 64 63 64 70 68 65 70 71 72 72 71
56 56 56 57 57 57 57 57 56 53 55 55 53 55 57 48 54 58 53 53 55 58 62 64 61 62 62 62 64 67 68 69 68 66 67 66 65 61 59 65 65 61 69 71 72 66 66
55 55 56 56 56 57 57 57 56 54 53 55 51 53 58 53 56 54 52 53 54 55 55 61 63 61 63 67 69 65 65 66 66 68 70 64 61 62 58 61 50 67 72 71 68 66 66
55 55 55 55 56 57 57 57 57 55 53 55 54 55 53 51 53 53 52 52 54 55 54 57 62 63 65 64 62 58 60 61 65 68 67 66 63 59 54 56 62 66 66 66 66 68 68
55 55 55 55 56 56 57 58 58 56 53 56 55 55 55 55 54 53 53 51 53 53 55 57 63 64 64 63 59 50 51 56 56 59 61 63 63 60 54 51 48 61 67 70 68 60 68
55 55 55 55 55 56 57 57 58 57 54 56 56 55 55 51 55 53 54 53 54 52 52 53 55 58 60 57 54 53 53 57 53 54 55 57 57 55 55 53 59 64 66 68 56 59 67
54 55 55 55 55 56 56 57 58 57 56 55 56 56 56 49 52 54 56 54 53 54 52 54 55 56 58 53 52 53 52 56 52 55 56 57 55 54 54 50 48 66 66 59 62 65 67
54 55 55 55 55 56 56 57 57 57 56 55 54 57 57 50 54 56 59 60 59 59 57 55 52 51 55 52 51 52 52 54 50 50 57 51 58 55 55 58 62 64 64 67 67 64 66
MSLP
1019.20 1018.86 1018.38 1018.07 1017.78 1017.32 1016.99 1016.64 1016.28 1015.85 1015.46 1014.98 1014.62 1014.25 1013.80 1013.29 1012.84 1012.47 1012.38 1012.12 1011.88 1011.68 1011.65 1011.66 1011.71 1011.32 1010.74 1009.60 1007.82 1007.12 1007.51 1007.87 1008.06 1007.89 1007.60 1007.37 1007.02 1006.91 1006.60 1006.82 1006.72 1006.54 1006.56 1006.59 1006.91 1007.37 1007.95
1019.37 1018.93 1018.61 1018.30 1017.88 1017.49 1017.19 1016.77 1016.28 1015.96 1015.51 1014.99 1014.53 1014.07 1013.64 1013.19 1012.70 1012.30 1012.11 1011.97 1011.74 1011.61 1011.47 1011.30 1011.36 1011.31 1010.44 1008.72 1007.28 1007.33 1007.39 1007.75 1007.75 1007.67 1007.43 1007.22 1006.99 1006.92 1006.75 1006.80 1006.74 1007.09 1006.88 1007.09 1007.38 1007.70 1008.17
1019.48 1019.13 1018.77 1018.35 1017.94 1017.56 1017.06 1016.56 1016.11 1015.70 1015.36 1014.92 1014.38 1013.96 1013.57 1013.09 1012.49 1012.05 1011.82 1011.72 1011.66 1011.54 1011.36 1011.07 1011.04 1010.83 1009.62 1008.37 1007.44 1007.59 1007.61 1007.40 1007.64 1007.63 1007.26 1007.26 1007.17 1006.91 1006.95 1006.79 1007.24 1007.14 1007.02 1007.39 1007.78 1007.92 1008.30
1019.86 1019.49 1019.00 1018.53 1018.11 1017.71 1017.25 1016.75 1016.29 1015.84 1015.35 1014.82 1014.29 1013.83 1013.40 1012.91 1012.39 1011.86 1011.50 1011.36 1011.47 1011.36 1011.21 1011.07 1010.90 1010.36 1008.69 1007.93 1007.78 1007.84 1007.73 1007.48 1007.56 1007.65 1007.58 1007.39 1007.20 1007.01 1007.07 1007.35 1007.27 1007.21 1007.37 1007.19 1007.78 1007.83 1008.43
1019.99 1019.57 1019.15 1018.80 1018.33 1017.85 1017.32 1016.82 1016.34 1015.78 1015.21 1014.65 1014.12 1013.62 1013.20 1012.75 1012.17 1011.79 1011.39 1011.17 1011.15 1011.02 1011.05 1011.03 1010.81 1009.81 1008.30 1008.14 1007.78 1007.38 1007.53 1007.23 1007.30 1007.43 1007.49 1007.37 1007.04 1007.23 1007.29 1007.04 1007.25 1007.64 1007.52 1007.60 1007.69 1007.88 1008.05
1020.26 1019.75 1019.33 1018.88 1018.34 1017.82 1017.24 1016.63 1016.11 1015.57 1015.01 1014.49 1013.97 1013.45 1012.99 1012.53 1012.11 1011.60 1011.24 1011.05 1010.92 1010.71 1010.99 1010.99 1010.34 1009.60 1007.96 1007.40 1007.14 1007.21 1007.43 1007.36 1007.13 1007.12 1007.15 1007.04 1007.28 1007.24 1007.31 1007.04 1007.07 1007.43 1007.54 1007.61 1007.66 1007.91 1008.08
1020.64 1020.11 1019.55 1018.95 1018.39 1017.78 1017.20 1016.62 1016.05 1015.40 1014.71 1014.09 1013.64 1013.17 1012.68 1012.24 1011.87 1011.26 1011.29 1010.77 1010.82 1010.47 1010.10 1009.33 1008.88 1008.16 1007.39 1007.09 1006.97 1007.10 1007.16 1007.06 1006.97 1006.94 1007.01 1007.49 1007.07 1006.70 1006.72 1007.22 1007.53 1007.60 1007.57 1007.43 1007.40 1007.66 1007.82
1020.75 1020.22 1019.67 1019.08 1018.46 1017.82 1017.18 1016.61 1016.03 1015.41 1014.75 1014.02 1013.29 1012.92 1012.59 1012.07 1011.64 1011.14 1011.03 1009.95 1009.20 1009.10 1008.77 1008.42 1008.29 1007.80 1007.34 1006.99 1006.73 1007.01 1007.13 1007.00 1006.99 1006.90 1007.23 1007.28 1006.85 1006.85 1007.13 1007.32 1007.35 1007.30 1007.37 1007.20 1007.34 1007.62 1007.69
1020.98 1020.50 1019.96 1019.31 1018.61 1017.90 1017.16 1016.46 1015.78 1015.13 1014.53 1014.04 1013.51 1012.90 1012.38 1011.96 1011.58 1011.35 1010.35 1009.20 1008.84 1008.68 1008.41 1007.91 1007.57 1007.14 1006.82 1006.78 1006.46 1006.61 1006.90 1006.92 1007.03 1007.19 1007.23 1007.06 1007.19 1007.06 1007.05 1007.03 1007.00 1006.89 1007.04 1007.10 1007.26 1007.69 1007.76
1021.16 1020.67 1020.09 1019.46 1018.75 1018.05 1017.31 1016.56 1015.78 1014.99 1014.23 1013.69 1013.31 1012.86 1012.37 1011.75 1011.74 1010.44 1009.55 1008.86 1008.77 1008.67 1007.98 1007.47 1007.02 1006.42 1006.60 1006.46 1006.53 1006.57 1006.66 1006.77 1007.16 1007.23 1007.54 1007.32 1007.18 1006.91 1006.83 1006.69 1006.65 1006.57 1006.94 1007.21 1007.27 1007.36 1007.27
1021.34 1020.71 1020.10 1019.44 1018.75 1018.00 1017.26 1016.50 1015.65 1014.80 1014.06 1013.31 1012.94 1012.62 1012.26 1012.01 1011.06 1009.97 1009.20 1008.86 1008.64 1008.29 1007.24 1006.90 1006.32 1006.20 1006.31 1006.32 1006.50 1006.80 1006.83 1006.74 1006.96 1007.28 1007.73 1007.09 1006.89 1006.72 1006.47 1006.37 1006.64 1006.95 1006.94 1007.08 1007.33 1007.39 1007.39
1021.57 1020.92 1020.29 1019.61 1018.88 1018.08 1017.27 1016.42 1015.53 1014.58 1013.80 1013.05 1012.49 1012.23 1011.93 1011.53 1011.05 1009.29 1008.97 1008.73 1008.48 1007.91 1006.84 1006.30 1006.00 1005.96 1005.97 1006.11 1006.22 1006.59 1006.63 1006.75 1007.28 1007.35 1007.61 1007.24 1007.16 1006.80 1006.24 1006.25 1006.50 1006.91 1007.08 1007.25 1007.51 1007.26 1006.87
1021.66 1021.08 1020.48 1019.79 1019.06 1018.28 1017.38 1016.38 1015.40 1014.39 1013.43 1012.59 1011.78 1011.54 1011.63 1010.58 1009.66 1009.17 1008.87 1008.40 1008.06 1007.12 1006.87 1006.43 1006.01 1005.93 1005.85 1005.97 1006.06 1006.14 1006.43 1006.73 1006.87 1007.20 1007.08 1007.10 1006.65 1006.34 1006.25 1006.19 1006.54 1006.60 1006.28 1006.38 1006.63 1006.75 1006.50
1021.71 1021.13 1020.52 1019.85 1019.10 1018.25 1017.30 1016.36 1015.30 1014.27 1013.11 1012.09 1011.22 1010.64 1010.64 1009.97 1009.41 1009.25 1008.45 1008.18 1007.67 1007.10 1006.61 1006.43 1006.24 1006.22 1005.98 1005.99 1006.06 1006.20 1006.45 1006.68 1007.24 1007.21 1007.05 1006.56 1006.24 1005.99 1005.81 1005.54 1005.51 1005.99 1005.99 1006.07 1006.13 1006.43 1006.50
1021.84 1021.25 1020.61 1019.89 1019.09 1018.14 1017.09 1016.05 1014.94 1013.81 1012.83 1011.71 1010.70 1010.19 1009.89 1009.21 1009.10 1009.09 1008.31 1007.95 1007.36 1007.18 1006.91 1006.64 1006.49 1006.24 1006.15 1006.13 1006.08 1006.30 1006.47 1006.42 1006.38 1006.74 1006.74 1006.61 1006.18 1005.89 1005.84 1005.65 1005.91 1006.36 1006.40 1006.36 1006.21 1007.32 1006.60
1021.96 1021.40 1020.72 1020.05 1019.27 1018.30 1017.22 1016.10 1014.82 1013.46 1012.40 1011.49 1010.56 1009.73 1009.48 1009.11 1008.96 1008.54 1008.26 1008.14 1008.11 1007.81 1007.36 1007.07 1006.60 1006.59 1006.30 1006.24 1006.28 1006.33 1006.46 1006.61 1006.49 1006.55 1006.20 1006.74 1006.38 1006.00 1005.79 1005.73 1006.23 1005.99 1006.45 1006.51 1006.33 1005.96 1005.50
1022.10 1021.55 1020.89 1020.25 1019.44 1018.45 1017.37 1016.20 1014.92 1013.40 1011.97 1011.08 1010.34 1009.49 1009.30 1009.01 1008.77 1008.47 1008.60 1008.89 1008.67 1008.18 1007.94 1007.48 1007.14 1006.99 1006.91 1006.70 1006.55 1006.52 1006.76 1007.09 1006.96 1007.03 1006.98 1006.83 1006.69 1006.09 1005.88 1005.46 1005.48 1006.26 1006.23 1006.61 1006.42 1006.01 1005.14
1022.19 1021.75 1021.12 1020.46 1019.60 1018.62 1017.50 1016.33 1015.13 1013.77 1012.11 1010.96 1010.43 1009.63 1009.22 1008.93 1009.08 1010.16 1009.74 1009.78 1009.67 1008.85 1008.43 1007.99 1007.81 1007.67 1007.56 1007.49 1007.20 1007.21 1007.28 1007.57 1007.60 1007.19 1007.13 1007.25 1006.80 1006.03 1005.57 1005.72 1005.93 1005.69 1005.53 1005.85 1005.84 1005.90 1005.86
1022.35 1021.86 1021.31 1020.65 1019.87 1018.90 1017.77 1016.52 1015.15 1013.99 1013.19 1012.54 1011.52 1010.74 1009.48 1009.08 1009.90 1010.55 1010.64 1010.32 1010.08 1009.50 1009.41 1009.00 1008.78 1008.69 1008.52 1008.29 1008.29 1008.02 1008.01 1008.25 1008.14 1007.73 1007.70 1007.48 1007.17 1006.27 1005.61 1006.01 1006.31 1005.94 1005.95 1005.88 1005.96 1005.81 1004.71
1022.62 1022.12 1021.57 1020.86 1020.05 1019.11 1018.06 1016.82 1015.37 1014.14 1013.31 1012.89 1012.30 1011.82 1011.09 1011.17 1012.07 1011.40 1011.28 1011.16 1010.80 1010.61 1010.45 1010.20 1009.92 1009.62 1009.29 1009.22 1009.19 1008.97 1008.79 1008.69 1008.69 1008.53 1008.39 1007.98 1007.41 1006.65 1006.10 1005.94 1006.40 1006.27 1006.12 1006.29 1006.08 1005.38 1004.11
1022.91 1022.33 1021.77 1021.14 1020.40 1019.51 1018.52 1017.28 1015.68 1014.44 1013.39 1013.10 1013.68 1014.58 1014.63 1013.56 1013.27 1012.89 1012.58 1012.40 1011.93 1011.61 1011.40 1011.13 1010.85 1010.77 1010.60 1010.27 1010.09 1009.90 1009.75 1009.36 1009.16 1009.08 1008.83 1008.48 1007.87 1007.79 1007.26 1007.04 1007.02 1006.62 1006.28 1006.07 1006.05 1005.41 1004.92
1023.18 1022.59 1022.05 1021.49 1020.83 1020.07 1019.15 1017.99 1016.47 1014.76 1013.58 1013.97 1015.27 1015.46 1015.57 1015.18 1014.71 1014.07 1014.05 1014.08 1013.49 1013.18 1012.84 1012.08 1011.87 1011.82 1011.54 1011.36 1011.48 1011.06 1010.74 1010.29 1009.90 1009.62 1009.33 1009.34 1008.70 1008.65 1007.87 1007.41 1007.31 1006.92 1006.55 1006.21 1005.90 1005.61 1005.26
1023.45 1022.94 1022.32 1021.72 1021.11 1020.41 1019.62 1018.68 1017.61 1016.35 1014.65 1015.80 1017.01 1016.86 1016.13 1016.39 1015.54 1015.08 1015.51 1015.36 1014.92 1014.60 1014.01 1013.54 1013.33 1012.78 1012.46 1012.62 1012.60 1012.24 1011.84 1011.24 1010.97 1010.60 1009.88 1009.76 1009.37 1009.07 1007.97 1008.16 1007.61 1006.54 1006.08 1005.80 1005.67 1006.31 1006.32
1023.51 1023.05 1022.56 1022.00 1021.43 1020.78 1020.12 1019.40 1018.66 1018.01 1017.49 1017.55 1018.01 1017.59 1016.46 1016.63 1016.12 1016.21 1016.27 1016.13 1015.77 1015.63 1015.18 1014.42 1014.07 1013.74 1013.75 1013.34 1012.64 1012.54 1012.08 1011.49 1011.20 1010.69 1010.57 1010.21 1010.18 1009.93 1008.97 1008.96 1007.60 1006.35 1006.49 1006.45 1006.42 1006.65 1006.98
1023.58 1023.21 1022.75 1022.28 1021.74 1021.18 1020.58 1020.00 1019.40 1018.91 1018.50 1018.14 1018.29 1017.84 1017.29 1017.10 1017.11 1016.88 1016.76 1016.58 1016.35 1016.10 1015.99 1015.34 1014.75 1014.77 1014.38 1013.65 1012.94 1012.43 1011.83 1011.36 1010.58 1010.36 1010.37 1010.72 1010.61 1010.15 1009.63 1008.74 1007.42 1007.23 1007.49 1007.35 1006.97 1006.71 1007.46
1023.70 1023.28 1022.85 1022.35 1021.94 1021.43 1020.91 1020.38 1019.86 1019.46 1019.05 1018.60 1018.81 1018.69 1018.00 1017.37 1017.46 1017.42 1017.16 1017.19 1016.80 1016.48 1016.04 1015.73 1015.40 1015.23 1014.63 1013.80 1013.18 1012.55 1011.71 1011.19 1010.83 1010.87 1011.08 1010.89 1010.97 1010.73 1010.43 1009.27 1007.95 1007.72 1007.97 1008.19 1008.16 1007.11 1008.11
1023.78 1023.36 1022.94 1022.54 1022.11 1021.67 1021.19 1020.71 1020.21 1019.82 1019.52 1019.22 1019.16 1019.09 1018.48 1018.09 1017.90 1017.86 1017.36 1017.34 1017.42 1017.21 1016.73 1016.55 1016.17 1015.58 1015.22 1014.28 1013.63 1013.09 1012.36 1012.14 1011.44 1010.96 1011.16 1011.02 1010.98 1010.56 1010.15 1009.68 1008.63 1008.82 1008.80 1008.82 1008.69 1009.01 1009.14
1023.76 1023.39 1022.99 1022.63 1022.26 1021.83 1021.43 1020.99 1020.50 1020.11 1019.78 1019.47 1019.45 1019.28 1018.92 1018.83 1018.37 1018.14 1017.79 1017.49 1017.55 1017.52 1016.99 1017.04 1016.87 1016.43 1015.69 1015.06 1014.64 1014.07 1013.55 1013.00 1012.52 1011.84 1011.38 1010.93 1010.78 1010.69 1010.65 1010.15 1009.45 1009.48 1009.32 1009.56 1010.01 1009.89 1009.73
1023.65 1023.31 1022.92 1022.59 1022.22 1021.86 1021.51 1021.18 1020.77 1020.42 1020.14 1019.77 1019.50 1019.48 1019.45 1019.27 1018.63 1018.56 1018.09 1017.87 1017.65 1017.65 1017.59 1017.63 1017.46 1017.07 1016.80 1016.24 1015.97 1015.36 1014.51 1013.89 1013.39 1012.16 1012.25 1012.04 1011.65 1011.41 1011.34 1010.20 1010.10 1010.31 1010.31 1010.36 1010.36 1010.17 1009.74
Wind_Speed
18 18 18 18 17 17 17 17 16 16 17 17 17 16 15 15 15 13 11 11 9 9 9 9 7 8 4 1 1 4 8 11 9 3 3 1 4 1 5 3 2 8 8 4 12 13 14
19 18 18 18 18 18 18 18 18 17 17 17 17 17 16 16 15 14 11 9 9 8 9 10 7 7 3 2 3 2 5 6 4 4 2 1 5 4 2 3 5 6 11 12 11 13 11
19 19 19 19 19 20 20 20 20 20 19 18 18 17 17 16 16 15 12 9 8 7 9 9 7 4 2 3 3 5 5 2 1 1 2 1 2 1 1 2 4 3 12 10 7 7 5
19 19 19 20 20 20 21 21 21 20 20 19 18 18 17 17 16 15 13 10 7 7 7 6 5 3 1 3 6 5 2 2 2 3 3 6 3 4 3 1 3 4 2 2 5 5 7
20 20 20 20 20 20 21 21 21 20 19 19 19 18 17 16 16 14 11 11 6 2 3 2 2 3 2 3 3 5 5 2 1 2 3 4 2 4 1 3 3 5 2 1 1 3 6
21 20 21 21 22 21 20 21 20 20 20 19 19 18 18 16 15 12 11 3 4 3 1 3 3 3 2 2 3 3 3 2 2 2 2 3 2 2 2 3 3 2 2 2 3 3 4
20 20 21 22 23 22 21 21 21 21 22 22 20 20 19 18 15 11 2 3 3 2 1 2 1 1 2 1 5 2 2 3 1 2 5 2 5 6 5 3 2 1 2 6 2 5 6
20 21 22 23 22 21 22 22 21 21 22 22 23 21 19 18 17 3 3 2 2 3 3 2 4 4 4 3 3 3 4 5 2 5 1 3 5 7 2 3 4 7 8 8 7 1 6
20 21 21 21 21 22 23 23 24 23 22 23 22 22 19 16 12 2 3 2 4 1 1 1 3 3 2 6 4 9 9 3 3 4 5 6 3 5 2 2 5 4 7 3 2 3 2
20 20 20 20 21 22 22 24 26 26 25 24 22 21 18 19 2 0 3 2 4 4 1 2 3 2 4 4 3 1 5 2 2 7 3 5 0 4 2 3 3 4 2 2 6 3 2
20 20 20 21 21 22 22 25 26 26 27 26 23 20 17 9 3 3 3 5 5 4 2 2 3 2 2 3 5 3 0 2 4 5 4 2 3 5 4 2 3 4 3 3 3 3 4
20 19 19 20 22 23 23 25 27 26 27 26 24 20 16 3 2 3 5 1 2 3 3 3 3 5 6 1 2 3 4 3 2 4 0 3 2 3 2 2 3 8 4 6 4 1 5
19 18 19 20 21 22 23 25 26 27 28 27 26 20 6 2 1 5 3 2 2 3 1 2 2 3 5 4 4 4 8 9 4 4 4 1 7 3 4 4 4 4 1 2 3 3 6
17 18 19 20 22 23 24 25 27 28 29 28 26 13 7 3 3 6 2 2 3 1 1 2 2 3 6 7 3 3 7 8 4 2 0 4 5 8 6 13 6 5 5 4 5 5 7
17 18 19 21 23 24 26 28 30 30 29 28 17 2 2 3 3 3 2 3 1 2 1 1 3 3 4 3 2 4 6 5 7 14 7 4 3 2 3 1 3 6 5 2 3 2 4
17 18 20 21 23 25 27 29 31 33 29 24 1 1 4 6 0 0 2 2 1 2 3 1 2 1 4 5 7 6 6 2 2 10 8 5 4 0 2 4 7 3 8 4 1 6 11
16 19 22 22 25 26 28 30 32 34 32 14 1 2 4 5 2 3 1 1 2 1 2 1 2 2 2 2 3 4 3 4 4 3 5 5 5 4 3 4 4 4 3 4 0 3 10
15 18 22 23 26 27 30 31 32 32 30 5 2 3 5 2 3 2 2 0 4 4 7 3 3 3 1 1 2 2 3 1 9 3 5 3 3 5 7 2 3 2 8 6 6 5 2
17 19 22 23 25 27 30 31 32 29 21 4 3 2 2 4 3 2 1 2 5 5 6 5 3 4 2 2 2 1 2 0 7 3 2 6 4 4 3 5 3 4 3 4 3 2 12
18 18 20 22 25 27 29 31 31 30 21 1 1 2 4 5 3 3 2 2 3 5 4 3 4 2 2 2 5 2 2 4 5 6 5 4 3 6 9 6 2 5 4 4 7 7 13
18 17 20 22 24 26 28 31 31 31 22 1 5 3 2 3 5 5 2 2 2 2 5 7 3 6 3 0 1 1 1 3 1 7 3 2 4 3 6 7 4 8 10 9 9 14 13
19 19 18 20 22 24 26 27 30 34 19 6 3 1 2 3 2 1 5 4 2 3 5 3 3 6 3 1 2 1 5 0 2 2 2 2 1 1 5 7 7 10 12 14 14 15 15
17 18 18 19 20 22 24 26 27 31 17 5 3 1 3 3 2 1 3 2 2 4 2 5 5 4 3 2 7 9 8 10 5 5 4 3 2 3 11 4 10 14 11 13 11 3 5
18 18 18 19 19 21 22 24 23 25 15 3 2 1 1 3 2 4 2 1 1 2 3 4 5 2 4 10 8 4 5 8 8 11 8 5 4 4 9 8 17 8 3 6 6 4 6
17 18 18 18 18 19 20 21 21 20 19 4 2 2 3 4 2 4 1 1 2 3 4 4 3 4 7 4 3 5 4 5 11 13 11 10 6 6 7 10 16 12 4 3 6 6 7
16 17 17 18 18 17 17 18 19 16 19 3 4 2 2 1 3 2 2 1 2 2 0 1 3 6 3 2 3 5 5 3 4 4 3 7 7 9 5 9 9 6 5 4 3 14 5
16 16 16 16 16 16 15 16 16 16 13 3 3 4 2 2 2 3 2 1 2 1 2 2 5 3 3 2 5 5 6 1 6 6 6 6 5 11 9 10 8 4 6 3 9 4 9
15 15 15 15 15 14 14 14 14 15 14 5 1 4 3 2 3 4 3 3 3 1 1 4 3 2 1 1 2 1 3 0 4 2 3 10 7 7 4 8 13 6 4 4 9 9 10
14 14 13 13 14 13 13 13 12 12 12 7 2 3 3 2 3 2 4 6 3 1 1 1 3 1 1 1 1 1 2 2 2 4 2 5 5 4 6 2 3 4 4 11 9 10 11
Wind_Direction
23 20 15 11 9 7 5 2 358 356 350 349 345 343 340 336 333 332 329 321 317 311 310 310 310 307 288 189 19 354 126 140 160 206 182 102 43 321 41 27 79 37 13 62 121 132 136
20 16 13 10 8 6 3 1 358 354 351 346 342 341 339 336 333 330 325 320 314 311 307 306 310 307 242 159 359 143 138 137 166 193 160 46 9 350 24 14 47 68 82 101 119 123 139
16 12 11 9 7 4 1 358 355 351 348 343 340 337 336 335 333 330 324 320 311 304 299 304 304 287 243 88 304 139 162 213 129 170 35 33 358 334 357 65 13 96 99 106 121 127 124
16 13 10 7 5 1 357 353 350 345 342 338 335 334 335 335 333 329 326 319 302 287 294 285 295 270 114 353 138 144 219 245 249 228 296 322 24 93 8 118 44 41 52 145 145 155 157
12 10 8 4 2 356 351 347 344 341 338 336 334 333 334 334 332 327 325 315 291 242 263 220 276 298 121 149 199 171 193 276 160 202 269 270 56 46 139 131 120 44 10 337 169 190 163
9 6 3 360 357 352 347 344 341 339 337 335 333 333 334 334 330 321 317 256 123 128 196 220 249 247 135 171 150 149 184 189 178 137 92 32 55 185 108 208 81 156 250 272 219 153 199
6 2 359 356 353 349 344 341 340 339 336 334 335 335 335 334 334 314 218 167 212 142 178 267 53 36 310 60 147 153 180 157 99 102 206 80 220 244 270 217 122 127 258 286 281 193 215
3 359 356 353 347 343 341 341 339 338 336 335 333 335 334 333 340 44 224 208 143 46 305 222 250 277 256 294 126 133 176 176 162 196 165 220 260 240 348 176 249 261 278 273 268 168 231
1 357 353 348 345 342 340 340 340 338 335 334 334 334 333 330 328 248 252 230 96 175 277 292 205 215 193 180 199 174 178 137 135 170 192 240 76 119 263 254 246 260 241 233 356 114 176
0 355 349 347 343 341 341 343 339 336 334 335 335 335 332 328 256 92 232 94 313 207 354 140 209 200 147 173 163 83 170 137 122 214 169 266 335 225 238 269 235 321 245 161 159 237 339
359 354 348 345 343 340 340 342 338 333 335 332 333 333 330 323 321 215 70 335 136 215 150 128 138 102 124 192 127 121 225 87 167 156 196 182 180 158 238 261 186 20 62 124 117 125 287
359 352 347 344 341 339 338 338 336 331 333 330 328 327 326 163 221 278 320 227 228 240 128 132 130 157 155 147 96 115 164 73 94 141 198 273 330 257 264 145 163 154 122 86 86 108 254
354 351 347 344 341 338 336 336 334 333 333 329 325 319 275 277 71 330 292 173 222 231 300 106 127 165 182 157 153 152 170 191 200 184 223 208 229 237 203 245 150 191 234 281 244 222 290
354 352 348 346 343 340 337 337 337 336 335 330 326 316 184 241 286 333 203 131 219 131 223 50 82 112 191 168 170 142 149 199 201 150 119 230 210 196 174 219 234 185 223 240 277 280 315
359 353 350 348 345 342 340 343 340 339 338 334 318 157 154 334 226 197 143 193 223 193 19 343 114 156 177 163 206 179 204 212 214 187 213 188 247 303 225 129 269 147 196 12 183 109 258
359 354 352 350 349 346 345 345 343 341 340 336 317 70 39 329 137 178 109 161 153 260 330 205 169 218 160 153 182 194 182 129 243 208 225 177 279 177 71 148 70 257 136 181 213 263 276
1 356 356 352 350 348 348 348 346 343 340 332 265 92 20 347 258 61 158 159 250 323 339 262 139 124 97 145 206 194 139 50 354 75 198 161 237 181 278 219 218 154 196 67 248 286 272
357 0 358 354 352 350 350 350 347 347 341 27 5 86 11 287 63 21 112 26 348 358 20 45 76 67 72 78 154 172 136 23 350 195 158 171 190 238 250 111 343 267 257 242 254 227 260
354 1 357 356 354 353 353 351 347 349 357 320 56 3 9 288 123 96 71 90 43 30 30 18 46 19 6 62 190 88 112 114 8 55 139 170 199 256 243 146 129 229 182 241 274 263 236
354 0 358 357 357 356 356 353 348 350 353 332 51 104 27 52 19 80 104 49 103 36 72 40 32 57 51 58 25 91 94 24 356 37 36 197 179 242 255 295 58 259 239 218 238 269 270
353 357 358 359 358 359 359 355 350 354 349 293 15 74 3 54 52 63 25 15 78 32 18 20 82 49 22 328 29 102 39 333 64 2 67 6 256 225 262 262 268 264 264 270 236 258 268
355 357 357 358 359 0 1 358 357 355 350 75 57 69 78 68 346 57 9 37 51 3 347 18 58 355 18 207 31 32 347 91 342 354 44 7 243 290 269 268 246 260 269 269 265 262 263
359 358 356 357 360 2 4 4 4 5 360 65 28 55 298 4 49 135 53 53 70 335 67 73 1 334 327 84 311 290 279 284 286 317 325 308 239 255 266 299 299 264 243 258 269 242 276
359 358 359 357 359 2 6 9 8 14 24 47 31 294 304 89 74 80 130 344 281 344 292 309 325 265 22 313 276 225 229 254 251 248 239 237 226 261 277 282 265 301 267 254 240 199 202
358 357 358 359 359 1 5 8 10 14 17 49 8 357 30 99 65 129 96 59 304 297 228 262 293 12 321 308 255 247 227 247 241 241 241 227 237 253 249 243 281 267 211 256 269 269 191
355 356 356 358 359 359 2 6 11 11 13 46 38 335 18 133 121 75 90 43 19 356 221 238 341 330 310 256 225 232 225 215 214 180 52 175 227 230 188 245 260 49 64 7 299 266 166
353 353 355 354 355 356 358 1 7 9 9 15 44 7 47 33 165 198 81 41 120 96 289 312 347 340 324 199 218 221 231 306 232 221 189 181 192 216 235 254 264 32 330 302 250 334 333
349 351 351 351 350 354 353 355 359 8 6 8 34 9 12 351 277 224 209 178 147 206 292 28 231 146 329 186 249 162 251 269 271 287 253 225 235 226 222 239 258 26 156 279 348 319 307
347 349 346 345 344 347 350 347 351 9 3 2 29 24 339 238 328 284 272 279 262 132 202 153 3 303 9 31 347 288 258 240 291 245 180 240 269 266 232 260 65 12 322 334 323 300 301